Flag for Brazil Weather past 2 weeks in Maceió, Alagoas, Brazil

Now
88 °F

Scattered clouds.


Feels Like: 91 °F
Forecast: 77 / 88 °F
Wind: 17 mph from East

Location: Maceio Aeroporto

Current Time: Dec 20, 2014 at 2:35:31 PM

Latest Report: Dec 20, 2014 at 2:00 PM


Visibility: N/A

Pressure: 29.92 "Hg

Humidity: 52%

Dew point: 68 °F

Location of MaceióLocation

Historic Weather in Maceió — Graph

°F

Maceió temperature yesterday

Maximum temperature yesterday: 88 °F (at 1:00 PM)
Minimum temperature yesterday: 72 °F (at 5:00 AM)
Average temperature yesterday: 79 °F

Past Weeks' High & Low Weather Summary

 TemperatureHumidityPressure
High88 °F (Dec 6, 11:00 AM)100% (Dec 6, 2:00 AM)30.01 "Hg (Dec 6, 2:00 AM)
Low66 °F (Dec 14, 5:00 AM)40% (Dec 8, 2:00 PM)29.86 "Hg (Dec 14, 2:00 PM)
Average78 °F80%29.93 "Hg
* Reported Dec 5 1:00 PM — Dec 20 1:00 PM, Maceió, Weather by CustomWeather, © 2014

Note: Actual official high and low records may vary slightly from our data, if they occured in-between our weather recording intervals... More about our weather records

Advertising

Maceió weather history for previous 24 hours

 ConditionsComfort  
Time TempWeatherWind HumidityBarometerVisibility
1:00 PM
Dec 20
88 °FScattered clouds.15 mph52%29.95 "HgN/A
12:00 PM88 °FScattered clouds.15 mph49%29.95 "HgN/A
11:00 AM88 °FScattered clouds.15 mph49%29.98 "HgN/A
10:00 AM84 °FScattered clouds.12 mph62%29.98 "HgN/A
9:00 AM79 °FPartly sunny.10 mph79%29.98 "HgN/A
8:00 AM77 °FScattered clouds.8 mph89%29.98 "HgN/A
7:00 AM75 °FScattered clouds.6 mph94%29.98 "HgN/A
6:00 AM72 °FPassing clouds.2 mph94%29.95 "HgN/A
5:00 AM72 °FPassing clouds.2 mph94%29.95 "HgN/A
4:00 AM73 °FPassing clouds.5 mph89%29.92 "HgN/A
3:00 AM72 °FPassing clouds.5 mph94%29.92 "HgN/A
2:00 AM72 °FPassing clouds.5 mph94%29.92 "HgN/A
1:00 AM73 °FPassing clouds.7 mph94%29.92 "HgN/A
12:00 AM73 °FPassing clouds.6 mph94%29.95 "HgN/A
11:00 PM
Dec 19
73 °FPassing clouds.7 mph94%29.95 "HgN/A
10:00 PM75 °FPassing clouds.8 mph89%29.98 "HgN/A
9:00 PM75 °FClear.9 mph89%29.95 "Hg10 mi
8:00 PM77 °FClear.17 mph83%29.95 "Hg10 mi
7:00 PM77 °FClear.13 mph83%29.92 "Hg10 mi
6:00 PM79 °FPassing clouds.12 mph79%29.89 "HgN/A
5:00 PM81 °FPassing clouds.16 mph70%29.86 "HgN/A
4:00 PM84 °FPassing clouds.15 mph62%29.86 "HgN/A
3:00 PM86 °FScattered clouds.25 mph59%29.86 "HgN/A
2:00 PM88 °FScattered clouds.17 mph55%29.86 "HgN/A
Weather by CustomWeather, © 2014

See weather overviewHow to use our weather pages